Time,TemperatureF,DewpointF,PressureIn,WindDirection,WindDirectionDegrees,WindSpeedMPH,WindSpeedGustMPH,Humidity,HourlyPrecipIn,Conditions,Clouds,dailyrainin,SoftwareType,DateUTC
2013-12-09 00:00:00,27.9,22.8,30.49,SSW,198,0.0,0.0,81,0.00,,CLR,0.20,VWS V14.01,2013-12-09 08:00:00,
2013-12-09 00:05:00,27.9,22.8,30.48,SSW,198,0.0,0.0,81,0.00,,CLR,0.00,VWS V14.01,2013-12-09 08:05:00,
2013-12-09 00:10:00,27.8,22.7,30.48,SSW,198,0.0,0.0,81,0.00,,CLR,0.00,VWS V14.01,2013-12-09 08:10:00,
2013-12-09 00:15:00,27.7,22.9,30.48,SSW,198,0.0,0.0,82,0.00,,CLR,0.00,VWS V14.01,2013-12-09 08:15:00,
2013-12-09 00:20:00,27.8,23.0,30.48,SSW,198,0.0,0.0,82,0.00,,CLR,0.00,VWS V14.01,2013-12-09 08:20:00,
2013-12-09 00:26:00,27.9,22.8,30.49,SSW,198,0.0,0.0,81,0.00,,CLR,0.00,VWS V14.01,2013-12-09 08:26:00,
2013-12-09 00:31:00,27.9,22.8,30.49,SSW,198,0.0,0.0,81,0.00,,CLR,0.00,VWS V14.01,2013-12-09 08:31:00,
2013-12-09 00:36:00,27.9,22.8,30.48,SSW,198,0.0,0.0,81,0.00,,CLR,0.00,VWS V14.01,2013-12-09 08:36:00,
2013-12-09 00:41:00,27.9,22.8,30.48,SSW,198,0.0,0.0,81,0.00,,CLR,0.00,VWS V14.01,2013-12-09 08:41:00,
2013-12-09 00:46:00,27.9,22.5,30.48,SSW,198,0.0,0.0,80,0.00,,CLR,0.00,VWS V14.01,2013-12-09 08:46:00,
2013-12-09 00:51:00,27.9,22.5,30.48,SSW,198,0.0,0.0,80,0.00,,CLR,0.00,VWS V14.01,2013-12-09 08:51:00,
2013-12-09 00:56:00,27.8,22.4,30.48,SSW,198,0.0,0.0,80,0.00,,CLR,0.00,VWS V14.01,2013-12-09 08:56:00,
2013-12-09 01:00:00,27.6,22.2,30.49,SSW,198,0.0,0.0,80,0.00,,CLR,0.00,VWS V14.01,2013-12-09 09:00:00,
2013-12-09 01:05:00,27.5,22.1,30.49,SSW,198,0.0,0.0,80,0.00,,CLR,0.00,VWS V14.01,2013-12-09 09:05:00,
2013-12-09 01:10:00,27.4,22.4,30.49,SSW,198,0.0,0.0,81,0.00,,CLR,0.00,VWS V14.01,2013-12-09 09:10:00,
2013-12-09 01:15:00,27.5,22.5,30.49,SSW,198,0.0,0.0,81,0.00,,CLR,0.00,VWS V14.01,2013-12-09 09:15:00,
2013-12-09 01:20:00,27.7,22.6,30.49,SSW,198,0.0,0.0,81,0.00,,CLR,0.00,VWS V14.01,2013-12-09 09:20:00,
2013-12-09 01:25:00,27.6,22.5,30.49,SSW,198,0.0,0.0,81,0.00,,CLR,0.00,VWS V14.01,2013-12-09 09:25:00,
2013-12-09 01:30:00,27.5,22.5,30.49,SSW,198,0.0,0.0,81,0.00,,CLR,0.00,VWS V14.01,2013-12-09 09:30:00,
2013-12-09 01:35:00,27.4,22.4,30.49,SSW,198,0.0,0.0,81,0.00,,CLR,0.00,VWS V14.01,2013-12-09 09:35:00,
2013-12-09 01:40:00,27.5,22.5,30.49,SSW,198,0.0,0.0,81,0.00,,CLR,0.00,VWS V14.01,2013-12-09 09:40:00,
2013-12-09 01:45:00,27.5,22.5,30.49,SSW,198,0.0,0.0,81,0.00,,CLR,0.00,VWS V14.01,2013-12-09 09:45:00,
2013-12-09 01:50:00,27.5,22.5,30.49,SSW,198,0.0,0.0,81,0.00,,CLR,0.00,VWS V14.01,2013-12-09 09:50:00,
2013-12-09 01:55:00,27.5,22.5,30.49,SSW,198,0.0,0.0,81,0.00,,CLR,0.00,VWS V14.01,2013-12-09 09:55:00,
2013-12-09 02:00:00,27.6,22.8,30.49,SSW,198,0.0,0.0,82,0.00,,CLR,0.00,VWS V14.01,2013-12-09 10:00:00,
2013-12-09 02:05:00,27.9,23.1,30.49,SSW,198,0.0,0.0,82,0.00,,CLR,0.00,VWS V14.01,2013-12-09 10:05:00,
2013-12-09 02:10:00,28.1,22.7,30.49,SSW,198,0.0,0.0,80,0.00,,CLR,0.00,VWS V14.01,2013-12-09 10:10:00,
2013-12-09 02:15:00,28.2,22.8,30.49,SSW,198,0.0,0.0,80,0.00,,CLR,0.00,VWS V14.01,2013-12-09 10:15:00,
2013-12-09 02:20:00,28.2,22.8,30.49,SSW,198,0.0,0.0,80,0.00,,CLR,0.00,VWS V14.01,2013-12-09 10:20:00,
2013-12-09 02:26:00,28.2,22.8,30.49,SSW,198,0.0,0.0,80,0.00,,CLR,0.00,VWS V14.01,2013-12-09 10:26:00,
2013-12-09 02:31:00,28.1,22.7,30.49,SSW,198,0.0,0.0,80,0.00,,CLR,0.00,VWS V14.01,2013-12-09 10:31:00,
2013-12-09 02:36:00,28.0,22.6,30.49,SSW,198,0.0,0.0,80,0.00,,CLR,0.00,VWS V14.01,2013-12-09 10:36:00,
2013-12-09 02:41:00,28.0,22.6,30.49,SSW,198,0.0,0.0,80,0.00,,CLR,0.00,VWS V14.01,2013-12-09 10:41:00,
2013-12-09 02:46:00,28.1,22.7,30.49,SSW,198,0.0,0.0,80,0.00,,CLR,0.00,VWS V14.01,2013-12-09 10:46:00,
2013-12-09 02:51:00,28.1,22.7,30.49,SSW,198,0.0,0.0,80,0.00,,CLR,0.00,VWS V14.01,2013-12-09 10:51:00,
2013-12-09 02:56:00,28.2,22.5,30.49,SSW,198,0.0,0.0,79,0.00,,CLR,0.00,VWS V14.01,2013-12-09 10:56:00,
2013-12-09 03:01:00,27.9,22.2,30.49,SSW,198,0.0,0.0,79,0.00,,CLR,0.00,VWS V14.01,2013-12-09 11:01:00,
2013-12-09 03:02:00,27.9,22.2,30.49,SSW,198,0.0,0.0,79,0.00,,CLR,0.00,VWS V14.01,2013-12-09 11:02:00,
2013-12-09 03:07:00,28.0,22.3,30.50,SSW,198,0.0,0.0,79,0.00,,CLR,0.00,VWS V14.01,2013-12-09 11:07:00,
2013-12-09 03:13:00,27.4,21.8,30.50,SSW,198,0.0,0.0,79,0.00,,CLR,0.00,VWS V14.01,2013-12-09 11:13:00,
2013-12-09 03:18:00,27.4,22.0,30.50,SSW,198,0.0,0.0,80,0.00,,CLR,0.00,VWS V14.01,2013-12-09 11:18:00,
2013-12-09 03:23:00,27.3,21.7,30.50,SSW,198,0.0,0.0,79,0.00,,CLR,0.00,VWS V14.01,2013-12-09 11:23:00,
2013-12-09 03:28:00,27.1,21.8,30.50,SSW,198,0.0,0.0,80,0.00,,CLR,0.00,VWS V14.01,2013-12-09 11:28:00,
2013-12-09 03:33:00,27.2,21.9,30.49,SSW,198,0.0,0.0,80,0.00,,CLR,0.00,VWS V14.01,2013-12-09 11:33:00,
2013-12-09 03:38:00,27.0,21.7,30.49,SSW,198,0.0,0.0,80,0.00,,CLR,0.00,VWS V14.01,2013-12-09 11:38:00,
2013-12-09 03:43:00,26.4,21.1,30.50,SSW,198,0.0,0.0,80,0.00,,CLR,0.00,VWS V14.01,2013-12-09 11:43:00,
2013-12-09 03:48:00,26.2,21.2,30.50,SSW,198,0.0,0.0,81,0.00,,CLR,0.00,VWS V14.01,2013-12-09 11:48:00,
2013-12-09 03:53:00,26.2,21.5,30.50,SSW,198,0.0,0.0,82,0.00,,CLR,0.00,VWS V14.01,2013-12-09 11:53:00,
2013-12-09 03:58:00,26.2,21.2,30.50,SSW,198,0.0,0.0,81,0.00,,CLR,0.00,VWS V14.01,2013-12-09 11:58:00,
2013-12-09 04:03:00,26.2,21.2,30.50,SSW,198,0.0,0.0,81,0.00,,CLR,0.00,VWS V14.01,2013-12-09 12:03:00,
2013-12-09 04:08:00,26.2,21.2,30.51,SSW,198,0.0,0.0,81,0.00,,CLR,0.00,VWS V14.01,2013-12-09 12:08:00,
2013-12-09 04:13:00,26.6,21.6,30.51,SSW,198,0.0,0.0,81,0.00,,CLR,0.00,VWS V14.01,2013-12-09 12:13:00,
2013-12-09 04:18:00,26.8,21.8,30.51,SSW,198,0.0,0.0,81,0.00,,CLR,0.00,VWS V14.01,2013-12-09 12:18:00,
2013-12-09 04:23:00,27.1,21.8,30.51,SSW,198,0.0,0.0,80,0.00,,CLR,0.00,VWS V14.01,2013-12-09 12:23:00,
2013-12-09 04:28:00,27.1,21.5,30.51,SSW,198,0.0,0.0,79,0.00,,CLR,0.00,VWS V14.01,2013-12-09 12:28:00,
2013-12-09 04:33:00,27.1,21.5,30.51,SSW,198,0.0,0.0,79,0.00,,CLR,0.00,VWS V14.01,2013-12-09 12:33:00,
2013-12-09 04:38:00,27.3,22.0,30.51,SSW,198,0.0,0.0,80,0.00,,CLR,0.00,VWS V14.01,2013-12-09 12:38:00,
2013-12-09 04:43:00,27.5,22.1,30.51,SSW,198,0.0,0.0,80,0.00,,CLR,0.00,VWS V14.01,2013-12-09 12:43:00,
2013-12-09 04:48:00,27.5,21.9,30.51,SSW,198,0.0,0.0,79,0.00,,CLR,0.00,VWS V14.01,2013-12-09 12:48:00,
2013-12-09 04:53:00,27.4,21.8,30.51,SSW,198,0.0,0.0,79,0.00,,CLR,0.00,VWS V14.01,2013-12-09 12:53:00,
2013-12-09 04:58:00,27.2,21.6,30.51,SSW,198,0.0,0.0,79,0.00,,CLR,0.00,VWS V14.01,2013-12-09 12:58:00,
2013-12-09 05:03:00,27.0,21.7,30.51,SSW,198,0.0,0.0,80,0.00,,CLR,0.00,VWS V14.01,2013-12-09 13:03:00,
2013-12-09 05:09:00,27.2,22.1,30.52,SSW,198,0.0,0.0,81,0.00,,CLR,0.00,VWS V14.01,2013-12-09 13:09:00,
2013-12-09 05:14:00,27.2,21.9,30.52,SSW,198,0.0,0.0,80,0.00,,CLR,0.00,VWS V14.01,2013-12-09 13:14:00,
2013-12-09 05:19:00,27.2,21.9,30.52,SSW,198,0.0,0.0,80,0.00,,CLR,0.00,VWS V14.01,2013-12-09 13:19:00,
2013-12-09 05:24:00,27.1,21.8,30.52,SSW,198,0.0,0.0,80,0.00,,CLR,0.00,VWS V14.01,2013-12-09 13:24:00,
2013-12-09 05:29:00,27.0,21.7,30.52,SSW,198,0.0,0.0,80,0.00,,CLR,0.00,VWS V14.01,2013-12-09 13:29:00,
2013-12-09 05:34:00,26.8,21.5,30.53,SSW,198,0.0,0.0,80,0.00,,CLR,0.00,VWS V14.01,2013-12-09 13:34:00,
2013-12-09 05:39:00,27.0,22.0,30.53,SSW,198,0.0,0.0,81,0.00,,CLR,0.00,VWS V14.01,2013-12-09 13:39:00,
2013-12-09 05:44:00,27.1,22.1,30.53,SSW,198,0.0,0.0,81,0.00,,CLR,0.00,VWS V14.01,2013-12-09 13:44:00,
2013-12-09 05:49:00,27.4,22.0,30.53,SSW,198,0.0,0.0,80,0.00,,CLR,0.00,VWS V14.01,2013-12-09 13:49:00,
2013-12-09 05:54:00,27.6,22.2,30.53,SSW,198,0.0,0.0,80,0.00,,CLR,0.00,VWS V14.01,2013-12-09 13:54:00,
2013-12-09 05:59:00,27.7,22.4,30.53,SSW,198,0.0,0.0,80,0.00,,CLR,0.00,VWS V14.01,2013-12-09 13:59:00,
2013-12-09 06:04:00,27.9,22.2,30.54,SSW,198,0.0,0.0,79,0.00,,CLR,0.00,VWS V14.01,2013-12-09 14:04:00,
2013-12-09 06:09:00,27.7,22.0,30.53,SSW,198,0.0,0.0,79,0.00,,CLR,0.00,VWS V14.01,2013-12-09 14:09:00,
2013-12-09 06:14:00,27.8,22.1,30.54,SSW,198,0.0,0.0,79,0.00,,CLR,0.00,VWS V14.01,2013-12-09 14:14:00,
2013-12-09 06:19:00,27.8,22.1,30.54,SSW,198,0.0,0.0,79,0.00,,CLR,0.00,VWS V14.01,2013-12-09 14:19:00,
2013-12-09 06:24:00,27.7,22.0,30.54,SSW,198,0.0,0.0,79,0.00,,CLR,0.00,VWS V14.01,2013-12-09 14:24:00,
2013-12-09 06:29:00,27.7,22.0,30.54,SSW,198,0.0,0.0,79,0.00,,CLR,0.00,VWS V14.01,2013-12-09 14:29:00,
2013-12-09 06:34:00,27.6,22.0,30.54,SSW,198,0.0,0.0,79,0.00,,CLR,0.00,VWS V14.01,2013-12-09 14:34:00,
2013-12-09 06:39:00,27.7,22.0,30.54,SSW,198,0.0,0.0,79,0.00,,CLR,0.00,VWS V14.01,2013-12-09 14:39:00,
2013-12-09 06:44:00,27.9,22.2,30.55,SSW,198,0.0,0.0,79,0.00,,CLR,0.00,VWS V14.01,2013-12-09 14:44:00,
2013-12-09 06:49:00,28.2,22.2,30.55,SSW,198,0.0,0.0,78,0.00,,CLR,0.00,VWS V14.01,2013-12-09 14:49:00,
2013-12-09 06:54:00,28.5,22.5,30.55,SSW,198,0.0,0.0,78,0.00,,CLR,0.00,VWS V14.01,2013-12-09 14:54:00,
2013-12-09 06:59:00,28.7,22.4,30.54,SSW,198,0.0,0.0,77,0.00,,CLR,0.00,VWS V14.01,2013-12-09 14:59:00,
2013-12-09 07:04:00,28.7,22.4,30.55,SSW,198,0.0,0.0,77,0.00,,CLR,0.00,VWS V14.01,2013-12-09 15:04:00,
2013-12-09 07:10:00,28.6,22.0,30.56,SSW,198,0.0,0.0,76,0.00,,CLR,0.00,VWS V14.01,2013-12-09 15:10:00,
2013-12-09 07:15:00,28.3,21.7,30.56,SSW,198,0.0,0.0,76,0.00,,CLR,0.00,VWS V14.01,2013-12-09 15:15:00,
2013-12-09 07:20:00,28.2,21.9,30.56,SSW,198,0.0,0.0,77,0.00,,CLR,0.00,VWS V14.01,2013-12-09 15:20:00,
2013-12-09 07:25:00,28.6,22.0,30.56,SSW,198,0.0,0.0,76,0.00,,CLR,0.00,VWS V14.01,2013-12-09 15:25:00,
2013-12-09 07:30:00,28.7,22.1,30.57,SSW,198,0.0,0.0,76,0.00,,CLR,0.00,VWS V14.01,2013-12-09 15:30:00,
2013-12-09 07:35:00,29.0,22.1,30.57,SSW,198,0.0,0.0,75,0.00,,CLR,0.00,VWS V14.01,2013-12-09 15:35:00,
2013-12-09 07:40:00,29.2,22.0,30.57,SSW,198,0.0,0.0,74,0.00,,CLR,0.00,VWS V14.01,2013-12-09 15:40:00,
2013-12-09 07:45:00,29.3,22.1,30.57,SSW,198,0.0,0.0,74,0.00,,CLR,0.00,VWS V14.01,2013-12-09 15:45:00,
2013-12-09 07:50:00,29.5,22.2,30.56,SSW,198,0.0,0.0,74,0.00,,CLR,0.00,VWS V14.01,2013-12-09 15:50:00,
2013-12-09 07:55:00,29.7,22.1,30.57,SSW,198,0.0,0.0,73,0.00,,CLR,0.00,VWS V14.01,2013-12-09 15:55:00,
2013-12-09 08:00:00,29.9,22.3,30.57,SSW,198,0.0,0.0,73,0.00,,CLR,0.00,VWS V14.01,2013-12-09 16:00:00,
2013-12-09 08:05:00,30.4,21.8,30.57,SSW,198,0.0,0.0,70,0.00,,,0.00,VWS V14.01,2013-12-09 16:05:00,
2013-12-09 08:10:00,31.2,22.2,30.57,SSW,198,0.0,0.0,69,0.00,,,0.00,VWS V14.01,2013-12-09 16:10:00,
2013-12-09 08:15:00,32.3,22.6,30.57,SSW,198,0.0,0.0,67,0.00,,,0.00,VWS V14.01,2013-12-09 16:15:00,
2013-12-09 08:20:00,33.3,21.3,30.57,SSW,198,0.0,0.0,61,0.00,,,0.00,VWS V14.01,2013-12-09 16:20:00,
2013-12-09 08:25:00,34.0,21.2,30.56,SSW,196,0.0,0.0,59,0.00,,,0.00,VWS V14.01,2013-12-09 16:25:00,
2013-12-09 08:30:00,34.4,21.6,30.57,SSW,196,0.0,0.0,59,0.00,,,0.00,VWS V14.01,2013-12-09 16:30:00,
2013-12-09 08:35:00,35.0,20.9,30.57,SSW,196,0.0,0.0,56,0.00,,,0.00,VWS V14.01,2013-12-09 16:35:00,
2013-12-09 08:40:00,35.4,21.3,30.57,SSW,196,0.0,0.0,56,0.00,,,0.00,VWS V14.01,2013-12-09 16:40:00,
2013-12-09 08:45:00,35.6,21.0,30.57,SSW,196,0.0,0.0,55,0.00,,,0.00,VWS V14.01,2013-12-09 16:45:00,
2013-12-09 08:50:00,35.9,20.0,30.57,SSW,196,0.0,0.0,52,0.00,,,0.00,VWS V14.01,2013-12-09 16:50:00,
2013-12-09 08:56:00,36.3,20.4,30.57,SSW,196,0.0,0.0,52,0.00,,,0.00,VWS V14.01,2013-12-09 16:56:00,
2013-12-09 09:01:00,36.9,20.5,30.57,SSW,196,0.0,0.0,51,0.00,,,0.00,VWS V14.01,2013-12-09 17:01:00,
2013-12-09 09:06:00,37.2,20.8,30.57,SSW,196,0.0,0.0,51,0.00,,,0.00,VWS V14.01,2013-12-09 17:06:00,
2013-12-09 09:11:00,37.6,20.2,30.57,SSW,196,0.0,0.0,49,0.00,,,0.00,VWS V14.01,2013-12-09 17:11:00,
2013-12-09 09:16:00,38.1,20.6,30.57,SSW,196,0.0,0.0,49,0.00,,,0.00,VWS V14.01,2013-12-09 17:16:00,
2013-12-09 09:21:00,38.2,21.7,30.58,SSW,196,0.0,0.0,51,0.00,,,0.00,VWS V14.01,2013-12-09 17:21:00,
2013-12-09 09:26:00,38.7,20.2,30.58,SSW,196,0.0,0.0,47,0.00,,,0.00,VWS V14.01,2013-12-09 17:26:00,
2013-12-09 09:31:00,38.4,19.4,30.59,SSW,196,0.0,0.0,46,0.01,,,0.01,VWS V14.01,2013-12-09 17:31:00,
2013-12-09 09:36:00,38.2,19.3,30.59,SSW,196,0.0,0.0,46,0.01,,,0.01,VWS V14.01,2013-12-09 17:36:00,
2013-12-09 09:41:00,38.2,18.8,30.59,SSW,196,0.0,0.0,45,0.01,,,0.01,VWS V14.01,2013-12-09 17:41:00,
2013-12-09 09:46:00,38.3,18.3,30.59,SSW,196,0.0,0.0,44,0.01,,,0.01,VWS V14.01,2013-12-09 17:46:00,
2013-12-09 09:51:00,38.4,18.4,30.59,SSW,196,0.0,0.0,44,0.01,,,0.01,VWS V14.01,2013-12-09 17:51:00,
2013-12-09 09:56:00,38.4,18.9,30.59,SSW,196,0.0,0.0,45,0.01,,,0.01,VWS V14.01,2013-12-09 17:56:00,
2013-12-09 10:01:00,38.4,20.4,30.59,SSW,196,0.0,0.0,48,0.01,,,0.01,VWS V14.01,2013-12-09 18:01:00,
2013-12-09 10:06:00,38.3,22.2,30.59,SSW,196,0.0,0.0,52,0.01,,,0.01,VWS V14.01,2013-12-09 18:06:00,
2013-12-09 10:11:00,38.4,21.9,30.59,SSW,196,0.0,0.0,51,0.01,,,0.01,VWS V14.01,2013-12-09 18:11:00,
2013-12-09 10:16:00,38.5,22.4,30.59,SSW,196,0.0,0.0,52,0.01,,,0.01,VWS V14.01,2013-12-09 18:16:00,
2013-12-09 10:21:00,38.6,22.5,30.59,SSW,196,0.0,0.0,52,0.01,,,0.01,VWS V14.01,2013-12-09 18:21:00,
2013-12-09 10:26:00,38.8,22.7,30.60,SSW,196,0.0,0.0,52,0.01,,,0.01,VWS V14.01,2013-12-09 18:26:00,
2013-12-09 10:31:00,38.8,24.0,30.60,SSW,196,0.0,0.0,55,0.01,,,0.01,VWS V14.01,2013-12-09 18:31:00,
2013-12-09 10:36:00,38.7,22.1,30.60,SSW,196,0.0,0.0,51,0.00,,,0.01,VWS V14.01,2013-12-09 18:36:00,
2013-12-09 10:41:00,38.9,21.9,30.60,SSW,196,0.0,0.0,50,0.00,,,0.01,VWS V14.01,2013-12-09 18:41:00,
2013-12-09 10:47:00,39.5,21.0,30.59,SSW,196,0.0,0.0,47,0.00,,,0.01,VWS V14.01,2013-12-09 18:47:00,
2013-12-09 10:52:00,39.9,19.8,30.59,SSW,196,0.0,0.0,44,0.00,,,0.01,VWS V14.01,2013-12-09 18:52:00,
2013-12-09 10:57:00,40.3,20.7,30.58,SSW,196,0.0,0.0,45,0.00,,,0.01,VWS V14.01,2013-12-09 18:57:00,
2013-12-09 11:02:00,40.8,19.5,30.58,SSW,196,0.0,0.0,42,0.00,,CLR,0.01,VWS V14.01,2013-12-09 19:02:00,
2013-12-09 11:07:00,41.3,21.6,30.58,SSW,196,0.0,0.0,45,0.00,,CLR,0.01,VWS V14.01,2013-12-09 19:07:00,
2013-12-09 11:12:00,41.6,21.3,30.58,SSW,196,0.0,0.0,44,0.00,,CLR,0.01,VWS V14.01,2013-12-09 19:12:00,
2013-12-09 11:17:00,41.8,20.4,30.58,SSW,196,0.0,0.0,42,0.00,,CLR,0.01,VWS V14.01,2013-12-09 19:17:00,
2013-12-09 11:22:00,41.7,16.7,30.58,SSW,196,0.0,0.0,36,0.01,,CLR,0.02,VWS V14.01,2013-12-09 19:22:00,
2013-12-09 11:27:00,41.5,18.4,30.58,SSW,196,0.0,0.0,39,0.01,,CLR,0.02,VWS V14.01,2013-12-09 19:27:00,
2013-12-09 11:32:00,41.5,18.4,30.58,SSW,196,0.0,0.0,39,0.01,,CLR,0.02,VWS V14.01,2013-12-09 19:32:00,
2013-12-09 11:37:00,41.7,18.6,30.58,SSW,196,0.0,0.0,39,0.01,,CLR,0.02,VWS V14.01,2013-12-09 19:37:00,
2013-12-09 11:42:00,41.6,18.5,30.58,SSW,196,0.0,0.0,39,0.01,,CLR,0.02,VWS V14.01,2013-12-09 19:42:00,
2013-12-09 11:47:00,41.2,17.5,30.58,SSW,196,0.0,0.0,38,0.01,,CLR,0.02,VWS V14.01,2013-12-09 19:47:00,
2013-12-09 11:52:00,41.5,17.2,30.57,SSW,196,0.0,0.0,37,0.01,,CLR,0.02,VWS V14.01,2013-12-09 19:52:00,
2013-12-09 11:57:00,41.9,18.2,30.57,SSW,196,0.0,0.0,38,0.01,,CLR,0.02,VWS V14.01,2013-12-09 19:57:00,
2013-12-09 12:02:00,42.0,18.9,30.57,SSW,196,0.0,0.0,39,0.02,,CLR,0.03,VWS V14.01,2013-12-09 20:02:00,
2013-12-09 12:07:00,41.9,19.9,30.57,SSW,196,0.0,0.0,41,0.02,,CLR,0.03,VWS V14.01,2013-12-09 20:07:00,
2013-12-09 12:12:00,41.4,17.7,30.58,SSW,196,0.0,0.0,38,0.02,,CLR,0.03,VWS V14.01,2013-12-09 20:12:00,
2013-12-09 12:17:00,41.7,19.2,30.57,SSW,196,0.0,0.0,40,0.02,,CLR,0.03,VWS V14.01,2013-12-09 20:17:00,
2013-12-09 12:22:00,41.9,18.8,30.57,SSW,196,0.0,0.0,39,0.02,,CLR,0.03,VWS V14.01,2013-12-09 20:22:00,
2013-12-09 12:27:00,41.9,18.8,30.57,SSW,196,0.0,0.0,39,0.01,,CLR,0.03,VWS V14.01,2013-12-09 20:27:00,
2013-12-09 12:32:00,41.9,18.8,30.57,SSW,196,0.0,0.0,39,0.01,,CLR,0.03,VWS V14.01,2013-12-09 20:32:00,
2013-12-09 12:37:00,41.9,17.5,30.57,SSW,198,0.0,0.0,37,0.01,,CLR,0.03,VWS V14.01,2013-12-09 20:37:00,
2013-12-09 12:43:00,41.8,17.5,30.57,SSW,198,0.0,0.0,37,0.01,,CLR,0.03,VWS V14.01,2013-12-09 20:43:00,
2013-12-09 12:48:00,41.6,14.6,30.57,SSW,198,0.0,0.0,33,0.01,,CLR,0.03,VWS V14.01,2013-12-09 20:48:00,
2013-12-09 12:53:00,41.8,16.2,30.56,SSW,198,0.0,0.0,35,0.02,,CLR,0.04,VWS V14.01,2013-12-09 20:53:00,
2013-12-09 12:58:00,42.4,18.0,30.56,SSW,198,0.0,0.0,37,0.02,,CLR,0.04,VWS V14.01,2013-12-09 20:58:00,
2013-12-09 13:03:00,42.8,17.7,30.56,SSW,198,0.0,0.0,36,0.02,,CLR,0.04,VWS V14.01,2013-12-09 21:03:00,
2013-12-09 13:08:00,43.0,18.5,30.56,SSW,198,0.0,0.0,37,0.01,,CLR,0.04,VWS V14.01,2013-12-09 21:08:00,
2013-12-09 13:13:00,43.1,18.0,30.56,SSW,198,0.0,0.0,36,0.01,,CLR,0.04,VWS V14.01,2013-12-09 21:13:00,
2013-12-09 13:18:00,42.8,17.7,30.56,SSW,198,0.0,0.0,36,0.01,,CLR,0.04,VWS V14.01,2013-12-09 21:18:00,
2013-12-09 13:23:00,42.7,18.3,30.56,SSW,198,0.0,0.0,37,0.01,,CLR,0.04,VWS V14.01,2013-12-09 21:23:00,
2013-12-09 13:28:00,42.7,17.0,30.56,SSW,198,0.0,0.0,35,0.01,,CLR,0.04,VWS V14.01,2013-12-09 21:28:00,
2013-12-09 13:33:00,42.6,16.2,30.56,SSW,198,0.0,0.0,34,0.01,,CLR,0.04,VWS V14.01,2013-12-09 21:33:00,
2013-12-09 13:38:00,42.9,17.8,30.56,SSW,198,0.0,0.0,36,0.01,,CLR,0.04,VWS V14.01,2013-12-09 21:38:00,
2013-12-09 13:43:00,43.1,18.6,30.56,SSW,199,0.0,0.0,37,0.01,,CLR,0.04,VWS V14.01,2013-12-09 21:43:00,
2013-12-09 13:48:00,43.3,17.5,30.56,SSW,199,0.0,0.0,35,0.01,,CLR,0.04,VWS V14.01,2013-12-09 21:48:00,
2013-12-09 13:53:00,43.6,18.4,30.56,SSW,199,0.0,0.0,36,0.01,,CLR,0.04,VWS V14.01,2013-12-09 21:53:00,
2013-12-09 13:58:00,43.7,17.9,30.56,SSW,199,0.0,0.0,35,0.00,,CLR,0.04,VWS V14.01,2013-12-09 21:58:00,
2013-12-09 14:03:00,43.8,19.9,30.56,SSW,199,0.0,0.0,38,0.00,,CLR,0.04,VWS V14.01,2013-12-09 22:03:00,
2013-12-09 14:08:00,43.5,19.6,30.56,SSW,200,0.0,0.0,38,0.00,,CLR,0.04,VWS V14.01,2013-12-09 22:08:00,
2013-12-09 14:13:00,43.2,19.9,30.56,SSW,200,0.0,0.0,39,0.00,,CLR,0.04,VWS V14.01,2013-12-09 22:13:00,
2013-12-09 14:19:00,43.5,22.0,30.55,SSW,200,0.0,0.0,42,0.00,,CLR,0.04,VWS V14.01,2013-12-09 22:19:00,
2013-12-09 14:24:00,43.3,21.2,30.56,SW,218,0.0,0.0,41,0.00,,CLR,0.04,VWS V14.01,2013-12-09 22:24:00,
2013-12-09 14:29:00,43.0,22.0,30.56,WSW,238,0.0,0.0,43,0.00,,CLR,0.04,VWS V14.01,2013-12-09 22:29:00,
2013-12-09 14:34:00,43.2,21.1,30.56,SW,236,0.0,0.0,41,0.00,,CLR,0.04,VWS V14.01,2013-12-09 22:34:00,
2013-12-09 14:39:00,43.6,22.0,30.55,SW,236,0.0,0.0,42,0.00,,CLR,0.04,VWS V14.01,2013-12-09 22:39:00,
2013-12-09 14:44:00,43.8,19.9,30.56,SW,229,0.0,0.0,38,0.00,,CLR,0.04,VWS V14.01,2013-12-09 22:44:00,
2013-12-09 14:49:00,44.0,21.8,30.56,SW,229,0.0,0.0,41,0.00,,CLR,0.04,VWS V14.01,2013-12-09 22:49:00,
2013-12-09 14:54:00,44.6,21.8,30.56,SW,229,0.0,0.0,40,0.00,,CLR,0.04,VWS V14.01,2013-12-09 22:54:00,
2013-12-09 14:59:00,44.3,20.9,30.56,SW,229,0.0,0.0,39,0.00,,CLR,0.04,VWS V14.01,2013-12-09 22:59:00,
2013-12-09 15:04:00,44.1,20.1,30.57,SW,229,0.0,0.0,38,0.00,,CLR,0.04,VWS V14.01,2013-12-09 23:04:00,
2013-12-09 15:09:00,43.7,19.1,30.57,SW,229,0.0,0.0,37,0.00,,CLR,0.04,VWS V14.01,2013-12-09 23:09:00,
2013-12-09 15:14:00,43.5,20.8,30.57,SW,229,0.0,0.0,40,0.00,,CLR,0.04,VWS V14.01,2013-12-09 23:14:00,
2013-12-09 15:19:00,43.5,20.8,30.57,SW,229,0.0,0.0,40,0.00,,CLR,0.04,VWS V14.01,2013-12-09 23:19:00,
2013-12-09 15:24:00,43.8,21.6,30.57,SW,229,0.0,0.0,41,0.00,,CLR,0.04,VWS V14.01,2013-12-09 23:24:00,
2013-12-09 15:29:00,43.5,22.5,30.57,SW,229,0.0,0.0,43,0.00,,CLR,0.04,VWS V14.01,2013-12-09 23:29:00,
2013-12-09 15:34:00,43.3,22.9,30.57,SW,229,0.0,0.0,44,0.00,,CLR,0.04,VWS V14.01,2013-12-09 23:34:00,
2013-12-09 15:39:00,42.9,23.0,30.57,SW,229,0.0,0.0,45,0.00,,CLR,0.04,VWS V14.01,2013-12-09 23:39:00,
2013-12-09 15:44:00,42.8,22.4,30.57,SW,229,0.0,0.0,44,0.00,,CLR,0.04,VWS V14.01,2013-12-09 23:44:00,
2013-12-09 15:49:00,42.7,22.3,30.58,SW,229,0.0,0.0,44,0.00,,CLR,0.04,VWS V14.01,2013-12-09 23:49:00,
2013-12-09 15:54:00,42.9,23.0,30.57,SW,229,0.0,0.0,45,0.00,,CLR,0.04,VWS V14.01,2013-12-09 23:54:00,
2013-12-09 15:59:00,42.8,22.4,30.58,SW,229,0.0,0.0,44,0.00,,CLR,0.04,VWS V14.01,2013-12-09 23:59:00,
2013-12-09 16:05:00,42.6,22.2,30.57,SW,229,0.0,0.0,44,0.00,,CLR,0.04,VWS V14.01,2013-12-10 00:05:00,
2013-12-09 16:10:00,41.8,21.5,30.58,SW,229,0.0,0.0,44,0.00,,CLR,0.04,VWS V14.01,2013-12-10 00:10:00,
2013-12-09 16:15:00,41.1,21.9,30.58,SW,229,0.0,0.0,46,0.00,,CLR,0.04,VWS V14.01,2013-12-10 00:15:00,
2013-12-09 16:20:00,40.6,21.5,30.58,SW,229,0.0,0.0,46,0.00,,CLR,0.04,VWS V14.01,2013-12-10 00:20:00,
2013-12-09 16:25:00,39.9,20.8,30.59,SW,229,0.0,0.0,46,0.00,,CLR,0.04,VWS V14.01,2013-12-10 00:25:00,
2013-12-09 16:30:00,39.3,20.8,30.59,SW,229,0.0,0.0,47,0.00,,CLR,0.04,VWS V14.01,2013-12-10 00:30:00,
2013-12-09 16:35:00,38.8,21.8,30.59,SW,229,0.0,0.0,50,0.00,,CLR,0.04,VWS V14.01,2013-12-10 00:35:00,
2013-12-09 16:40:00,38.4,21.9,30.60,SW,229,0.0,0.0,51,0.00,,CLR,0.04,VWS V14.01,2013-12-10 00:40:00,
2013-12-09 16:45:00,37.9,22.3,30.60,SW,229,0.0,0.0,53,0.00,,CLR,0.04,VWS V14.01,2013-12-10 00:45:00,
2013-12-09 16:50:00,37.4,21.9,30.59,SW,229,0.0,0.0,53,0.00,,CLR,0.04,VWS V14.01,2013-12-10 00:50:00,
2013-12-09 16:55:00,37.1,21.6,30.60,SW,229,0.0,0.0,53,0.00,,CLR,0.04,VWS V14.01,2013-12-10 00:55:00,
2013-12-09 17:00:00,36.7,20.8,30.60,SW,229,0.0,0.0,52,0.00,,CLR,0.04,VWS V14.01,2013-12-10 01:00:00,
2013-12-09 17:05:00,36.4,20.9,30.60,SW,229,0.0,0.0,53,0.00,,CLR,0.04,VWS V14.01,2013-12-10 01:05:00,
2013-12-09 17:10:00,36.1,21.1,30.60,SW,229,0.0,0.0,54,0.00,,CLR,0.04,VWS V14.01,2013-12-10 01:10:00,
2013-12-09 17:15:00,35.9,21.8,30.60,SW,229,0.0,0.0,56,0.00,,CLR,0.04,VWS V14.01,2013-12-10 01:15:00,
2013-12-09 17:20:00,35.7,21.6,30.59,SW,229,0.0,0.0,56,0.00,,CLR,0.04,VWS V14.01,2013-12-10 01:20:00,
2013-12-09 17:25:00,35.4,21.3,30.60,SW,229,0.0,0.0,56,0.00,,CLR,0.04,VWS V14.01,2013-12-10 01:25:00,
2013-12-09 17:30:00,35.2,21.5,30.60,SW,229,0.0,0.0,57,0.00,,CLR,0.04,VWS V14.01,2013-12-10 01:30:00,
2013-12-09 17:35:00,35.2,20.7,30.60,SW,229,0.0,0.0,55,0.00,,CLR,0.04,VWS V14.01,2013-12-10 01:35:00,
2013-12-09 17:40:00,35.3,21.6,30.60,SW,229,0.0,0.0,57,0.00,,CLR,0.04,VWS V14.01,2013-12-10 01:40:00,
2013-12-09 17:45:00,34.9,22.0,30.61,SW,229,0.0,0.0,59,0.00,,CLR,0.04,VWS V14.01,2013-12-10 01:45:00,
2013-12-09 17:50:00,34.6,21.8,30.61,SW,229,0.0,0.0,59,0.00,,CLR,0.04,VWS V14.01,2013-12-10 01:50:00,
2013-12-09 17:55:00,34.8,21.5,30.61,SW,229,0.0,0.0,58,0.00,,CLR,0.04,VWS V14.01,2013-12-10 01:55:00,
2013-12-09 18:00:00,35.1,21.8,30.61,SW,229,0.0,0.0,58,0.00,,CLR,0.04,VWS V14.01,2013-12-10 02:00:00,
2013-12-09 18:05:00,34.7,22.6,30.60,SW,229,0.0,0.0,61,0.00,,CLR,0.04,VWS V14.01,2013-12-10 02:05:00,
2013-12-09 18:11:00,34.4,22.7,30.61,SW,229,0.0,0.0,62,0.00,,CLR,0.04,VWS V14.01,2013-12-10 02:11:00,
2013-12-09 18:16:00,34.6,23.7,30.61,SW,229,0.0,0.0,64,0.00,,CLR,0.04,VWS V14.01,2013-12-10 02:16:00,
2013-12-09 18:21:00,34.5,23.2,30.60,SW,229,0.0,0.0,63,0.00,,CLR,0.04,VWS V14.01,2013-12-10 02:21:00,
2013-12-09 18:26:00,34.6,22.5,30.61,SW,229,0.0,0.0,61,0.00,,CLR,0.04,VWS V14.01,2013-12-10 02:26:00,
2013-12-09 18:31:00,34.7,23.0,30.61,SW,229,0.0,0.0,62,0.00,,CLR,0.04,VWS V14.01,2013-12-10 02:31:00,
2013-12-09 18:36:00,34.4,23.1,30.61,SW,229,0.0,0.0,63,0.00,,CLR,0.04,VWS V14.01,2013-12-10 02:36:00,
2013-12-09 18:41:00,34.4,22.7,30.61,SW,229,0.0,0.0,62,0.00,,CLR,0.04,VWS V14.01,2013-12-10 02:41:00,
2013-12-09 18:46:00,34.3,22.3,30.61,SW,229,0.0,0.0,61,0.00,,CLR,0.04,VWS V14.01,2013-12-10 02:46:00,
2013-12-09 18:51:00,34.3,22.6,30.61,SW,229,0.0,0.0,62,0.00,,CLR,0.04,VWS V14.01,2013-12-10 02:51:00,
2013-12-09 18:56:00,34.2,22.9,30.61,SW,229,0.0,0.0,63,0.00,,CLR,0.04,VWS V14.01,2013-12-10 02:56:00,
2013-12-09 19:01:00,34.4,22.7,30.61,SW,229,0.0,0.0,62,0.00,,CLR,0.04,VWS V14.01,2013-12-10 03:01:00,
2013-12-09 19:06:00,34.8,22.3,30.61,SW,229,0.0,0.0,60,0.00,,CLR,0.04,VWS V14.01,2013-12-10 03:06:00,
2013-12-09 19:11:00,35.4,22.9,30.61,SW,229,0.0,0.0,60,0.00,,CLR,0.04,VWS V14.01,2013-12-10 03:11:00,
2013-12-09 19:16:00,35.8,22.9,30.60,SW,229,0.0,0.0,59,0.00,,CLR,0.04,VWS V14.01,2013-12-10 03:16:00,
2013-12-09 19:21:00,36.0,22.7,30.60,SW,229,0.0,0.0,58,0.00,,CLR,0.04,VWS V14.01,2013-12-10 03:21:00,
2013-12-09 19:26:00,36.1,22.4,30.60,SW,229,0.0,0.0,57,0.00,,CLR,0.04,VWS V14.01,2013-12-10 03:26:00,
2013-12-09 19:31:00,36.4,22.6,30.61,SW,229,0.0,0.0,57,0.00,,CLR,0.04,VWS V14.01,2013-12-10 03:31:00,
2013-12-09 19:36:00,36.6,22.4,30.61,SW,229,0.0,0.0,56,0.00,,CLR,0.04,VWS V14.01,2013-12-10 03:36:00,
2013-12-09 19:41:00,36.8,22.2,30.61,SW,229,0.0,0.0,55,0.00,,CLR,0.04,VWS V14.01,2013-12-10 03:41:00,
2013-12-09 19:46:00,36.9,22.3,30.61,SW,229,0.0,0.0,55,0.00,,CLR,0.04,VWS V14.01,2013-12-10 03:46:00,
2013-12-09 19:51:00,36.6,22.4,30.61,SW,229,0.0,0.0,56,0.00,,CLR,0.04,VWS V14.01,2013-12-10 03:51:00,
2013-12-09 19:56:00,35.7,22.4,30.61,SW,229,0.0,0.0,58,0.00,,CLR,0.04,VWS V14.01,2013-12-10 03:56:00,
2013-12-09 20:01:00,35.0,22.1,30.62,SW,229,0.0,0.0,59,0.00,,CLR,0.04,VWS V14.01,2013-12-10 04:01:00,
2013-12-09 20:07:00,34.5,22.1,30.59,SW,229,0.0,0.0,60,0.00,,CLR,0.04,VWS V14.01,2013-12-10 04:07:00,
2013-12-09 20:12:00,34.5,22.1,30.59,SW,229,0.0,0.0,60,0.00,,CLR,0.04,VWS V14.01,2013-12-10 04:12:00,
2013-12-09 20:17:00,34.7,21.9,30.59,SW,229,0.0,0.0,59,0.00,,CLR,0.04,VWS V14.01,2013-12-10 04:17:00,
2013-12-09 20:22:00,34.8,21.1,30.59,SW,229,0.0,0.0,57,0.00,,CLR,0.04,VWS V14.01,2013-12-10 04:22:00,
2013-12-09 20:27:00,35.0,20.9,30.59,SW,229,0.0,0.0,56,0.00,,CLR,0.04,VWS V14.01,2013-12-10 04:27:00,
2013-12-09 20:32:00,35.2,20.7,30.60,SW,229,0.0,0.0,55,0.00,,CLR,0.04,VWS V14.01,2013-12-10 04:32:00,
2013-12-09 20:37:00,35.6,21.0,30.60,SW,229,0.0,0.0,55,0.00,,CLR,0.04,VWS V14.01,2013-12-10 04:37:00,
2013-12-09 20:42:00,36.1,20.2,30.60,SW,229,0.0,0.0,52,0.00,,CLR,0.04,VWS V14.01,2013-12-10 04:42:00,
2013-12-09 20:47:00,36.3,20.4,30.60,SW,229,0.0,0.0,52,0.00,,CLR,0.04,VWS V14.01,2013-12-10 04:47:00,
2013-12-09 20:52:00,36.3,20.8,30.60,SW,229,0.0,0.0,53,0.00,,CLR,0.04,VWS V14.01,2013-12-10 04:52:00,
2013-12-09 20:57:00,36.1,20.6,30.60,SW,229,0.0,0.0,53,0.00,,CLR,0.04,VWS V14.01,2013-12-10 04:57:00,
2013-12-09 21:01:00,35.6,21.0,30.60,SW,229,0.0,0.0,55,0.00,,CLR,0.04,VWS V14.01,2013-12-10 05:01:00,
2013-12-09 21:02:00,35.4,20.9,30.60,SW,229,0.0,0.0,55,0.00,,CLR,0.04,VWS V14.01,2013-12-10 05:02:00,
2013-12-09 21:07:00,34.7,21.0,30.60,SW,230,0.0,0.0,57,0.00,,CLR,0.04,VWS V14.01,2013-12-10 05:07:00,
2013-12-09 21:12:00,34.4,20.8,30.60,SW,232,0.0,0.0,57,0.00,,CLR,0.04,VWS V14.01,2013-12-10 05:12:00,
2013-12-09 21:17:00,34.1,21.3,30.60,SW,232,0.0,0.0,59,0.00,,CLR,0.04,VWS V14.01,2013-12-10 05:17:00,
2013-12-09 21:22:00,33.6,21.2,30.60,SW,232,0.0,0.0,60,0.00,,CLR,0.04,VWS V14.01,2013-12-10 05:22:00,
2013-12-09 21:27:00,33.6,21.2,30.60,SW,232,0.0,0.0,60,0.00,,CLR,0.04,VWS V14.01,2013-12-10 05:27:00,
2013-12-09 21:32:00,34.2,21.0,30.60,SW,233,0.0,0.0,58,0.00,,CLR,0.04,VWS V14.01,2013-12-10 05:32:00,
2013-12-09 21:37:00,35.3,19.9,30.60,SW,233,0.0,0.0,53,0.00,,CLR,0.04,VWS V14.01,2013-12-10 05:37:00,
2013-12-09 21:42:00,36.4,19.5,30.59,SW,233,0.0,0.0,50,0.00,,CLR,0.04,VWS V14.01,2013-12-10 05:42:00,
2013-12-09 21:47:00,36.9,19.5,30.59,SW,233,0.0,0.0,49,0.00,,CLR,0.04,VWS V14.01,2013-12-10 05:47:00,
2013-12-09 21:52:00,36.8,20.4,30.60,SW,233,0.0,0.0,51,0.00,,CLR,0.04,VWS V14.01,2013-12-10 05:52:00,
2013-12-09 21:57:00,36.0,19.6,30.59,SW,234,0.0,0.0,51,0.00,,CLR,0.04,VWS V14.01,2013-12-10 05:57:00,
2013-12-09 22:02:00,35.9,19.5,30.59,SW,235,0.0,0.0,51,0.00,,CLR,0.04,VWS V14.01,2013-12-10 06:02:00,
2013-12-09 22:07:00,35.7,19.8,30.59,SW,236,0.0,0.0,52,0.00,,CLR,0.04,VWS V14.01,2013-12-10 06:07:00,
2013-12-09 22:12:00,35.6,19.3,30.59,SW,236,0.0,0.0,51,0.00,,CLR,0.04,VWS V14.01,2013-12-10 06:12:00,
2013-12-09 22:17:00,36.0,18.7,30.59,SW,236,0.0,0.0,49,0.00,,CLR,0.04,VWS V14.01,2013-12-10 06:17:00,
2013-12-09 22:22:00,36.2,17.9,30.59,WSW,237,0.0,0.0,47,0.00,,CLR,0.04,VWS V14.01,2013-12-10 06:22:00,
2013-12-09 22:28:00,36.5,18.2,30.58,WSW,237,0.0,0.0,47,0.00,,CLR,0.04,VWS V14.01,2013-12-10 06:28:00,
2013-12-09 22:33:00,36.4,17.6,30.59,WSW,237,0.0,0.0,46,0.00,,CLR,0.04,VWS V14.01,2013-12-10 06:33:00,
2013-12-09 22:38:00,36.0,18.2,30.59,WSW,237,0.0,0.0,48,0.00,,CLR,0.04,VWS V14.01,2013-12-10 06:38:00,
2013-12-09 22:43:00,35.6,18.3,30.59,WSW,237,0.0,0.0,49,0.00,,CLR,0.04,VWS V14.01,2013-12-10 06:43:00,
2013-12-09 22:48:00,35.5,18.2,30.59,WSW,237,0.0,0.0,49,0.00,,CLR,0.04,VWS V14.01,2013-12-10 06:48:00,
2013-12-09 22:53:00,35.6,18.3,30.59,WSW,237,0.0,0.0,49,0.00,,CLR,0.04,VWS V14.01,2013-12-10 06:53:00,
2013-12-09 22:58:00,35.8,18.0,30.59,WSW,237,0.0,0.0,48,0.00,,CLR,0.04,VWS V14.01,2013-12-10 06:58:00,
2013-12-09 23:03:00,35.6,18.3,30.59,WSW,237,0.0,0.0,49,0.00,,,0.04,VWS V14.01,2013-12-10 07:03:00,
2013-12-09 23:08:00,35.2,18.4,30.59,WSW,237,0.0,0.0,50,0.00,,,0.04,VWS V14.01,2013-12-10 07:08:00,
2013-12-09 23:13:00,34.8,18.5,30.59,WSW,237,0.0,0.0,51,0.00,,,0.04,VWS V14.01,2013-12-10 07:13:00,
2013-12-09 23:18:00,35.2,18.9,30.59,WSW,237,0.0,0.0,51,0.00,,,0.04,VWS V14.01,2013-12-10 07:18:00,
2013-12-09 23:23:00,35.4,18.6,30.59,WSW,237,0.0,0.0,50,0.00,,,0.04,VWS V14.01,2013-12-10 07:23:00,
2013-12-09 23:28:00,35.6,18.3,30.58,WSW,237,0.0,0.0,49,0.00,,,0.04,VWS V14.01,2013-12-10 07:28:00,
2013-12-09 23:33:00,35.9,18.6,30.58,WSW,237,0.0,0.0,49,0.00,,,0.04,VWS V14.01,2013-12-10 07:33:00,
2013-12-09 23:38:00,36.0,18.7,30.58,WSW,237,0.0,0.0,49,0.00,,,0.04,VWS V14.01,2013-12-10 07:38:00,
2013-12-09 23:43:00,36.0,18.7,30.58,WSW,237,0.0,0.0,49,0.00,,,0.04,VWS V14.01,2013-12-10 07:43:00,
2013-12-09 23:48:00,36.2,18.9,30.58,WSW,237,0.0,0.0,49,0.00,,,0.04,VWS V14.01,2013-12-10 07:48:00,
2013-12-09 23:53:00,36.2,18.4,30.58,WSW,237,0.0,0.0,48,0.00,,,0.04,VWS V14.01,2013-12-10 07:53:00,
2013-12-09 23:58:00,35.9,19.1,30.58,WSW,237,0.0,0.0,50,0.00,,,0.04,VWS V14.01,2013-12-10 07:58:00,